Weather History for Crane Lake, MN

Change the Weather History Date:

Sunday, November 17, 2013

  Actual Average Record
Temperature  
Mean Temperature 32 °F -  
Max Temperature 39 °F 31 °F 66 °F (2001)
Min Temperature 26 °F 18 °F 5 °F (2005)
Degree Days  
Heating Degree Days 32    
Moisture  
Dew Point 32 °F    
Average Humidity 97    
Maximum Humidity 100    
Minimum Humidity 93    
Precipitation  
Precipitation 0.05 in - - ()
Sea Level Pressure  
Sea Level Pressure 29.37 in    
Wind  
Wind Speed 2 mph (NW)    
Max Wind Speed 14 mph    
Max Gust Speed 22 mph    
Visibility 4 miles    
Events Fog , Rain , Snow    
Averages and records for this station are not official NWS values.
T = Trace of Precipitation, MM = Missing Value Source: NWS Daily Summary

Daily Weather History Graph

Daily Weather History Graph

Search for Another Location

Airport:

Trip Planner

Search our weather history database for the weather conditions in past years. The results will help you decide how hot, cold, wet, or windy it might be!

Date:

Astronomy

Nov. 17, 2013 Rise Set
Actual Time 7:20 AM CST 4:28 PM CST
Civil Twilight 6:46 AM CST 5:03 PM CST
Nautical Twilight 6:08 AM CST 5:41 PM CST
Astronomical Twilight 5:31 AM CST 6:18 PM CST
Moon 4:46 PM CST (11/17) 7:14 AM CST (11/17)
Length of Visible Light 10h 17m
Length of Day
9h 08m
Full, 100% of the Moon is Illuminated
Nov 17
Full
Nov 25
Last Quarter
Dec 2
New
Dec 9
First Quarter
Dec 17
Full

Hourly Weather History & Observations

Time (CST) Temp. Windchill Dew Point Humidity Pressure Visibility Wind Dir Wind Speed Gust Speed Precip Events Conditions
12:10 AM 37.4 °F - 35.6 °F 93% 29.30 in 1.0 mi Calm Calm - N/A   Overcast
12:30 AM 37.4 °F - 35.6 °F 93% 29.29 in 0.5 mi Calm Calm - N/A   Drizzle
12:50 AM 37.4 °F - 35.6 °F 93% 29.29 in 0.8 mi Calm Calm - N/A   Drizzle
1:10 AM 37.4 °F - 35.6 °F 93% 29.29 in 0.5 mi Calm Calm - N/A   Light Drizzle
1:30 AM 37.4 °F - 35.6 °F 93% 29.29 in 0.5 mi Calm Calm - N/A   Light Drizzle
1:50 AM 37.4 °F - 35.6 °F 93% 29.29 in 0.2 mi Calm Calm - N/A   Light Drizzle
2:10 AM 37.4 °F - 35.6 °F 93% 29.27 in 0.5 mi Calm Calm - N/A Rain Rain
2:30 AM 37.4 °F - 35.6 °F 93% 29.27 in 1.0 mi Calm Calm - N/A   Light Drizzle
2:50 AM 37.4 °F - 35.6 °F 93% 29.26 in 1.2 mi Calm Calm - N/A   Light Drizzle
3:10 AM 37.4 °F - 35.6 °F 93% 29.26 in 1.0 mi Calm Calm - N/A   Drizzle
3:30 AM 37.4 °F - 35.6 °F 93% 29.26 in 0.8 mi Calm Calm - N/A   Drizzle
3:50 AM 37.4 °F - 35.6 °F 93% 29.26 in 0.8 mi Calm Calm - N/A   Light Drizzle
4:10 AM 37.4 °F - 35.6 °F 93% 29.27 in 0.5 mi Calm Calm - N/A Fog Fog
4:30 AM 37.4 °F - 35.6 °F 93% 29.28 in 0.2 mi Calm Calm - 0.01 in   Drizzle
4:50 AM 37.4 °F - 35.6 °F 93% 29.27 in 0.5 mi Calm Calm - 0.02 in Rain Rain
5:10 AM 37.4 °F - 35.6 °F 93% 29.26 in 0.5 mi Calm Calm - N/A   Drizzle
5:30 AM 37.4 °F - 35.6 °F 93% 29.26 in 0.5 mi Calm Calm - N/A   Drizzle
5:50 AM 37.4 °F - 35.6 °F 93% 29.25 in 0.2 mi Calm Calm - 0.01 in   Light Drizzle
6:10 AM 35.6 °F - 35.6 °F 100% 29.26 in 0.2 mi Calm Calm - N/A   Light Drizzle
6:30 AM 35.6 °F - 35.6 °F 100% 29.27 in 0.8 mi Calm Calm - N/A Rain Rain
6:50 AM 35.6 °F - 35.6 °F 100% 29.27 in 1.0 mi Calm Calm - 0.01 in Rain Rain
7:10 AM 35.6 °F - 35.6 °F 100% 29.25 in 0.5 mi Calm Calm - N/A   Light Drizzle
7:30 AM 35.6 °F - 35.6 °F 100% 29.25 in 1.5 mi Calm Calm - N/A   Overcast
7:50 AM 35.6 °F - 35.6 °F 100% 29.25 in 0.8 mi Calm Calm - N/A   Overcast
8:10 AM 35.6 °F - 35.6 °F 100% 29.26 in 0.8 mi Calm Calm - N/A   Overcast
8:30 AM 37.4 °F - 35.6 °F 93% 29.26 in 0.8 mi Calm Calm - N/A   Overcast
8:50 AM 37.4 °F - 35.6 °F 93% 29.27 in 0.8 mi Calm Calm - N/A   Overcast
9:10 AM 37.4 °F - 35.6 °F 93% 29.26 in 0.8 mi Calm Calm - N/A   Drizzle
9:30 AM 37.4 °F - 37.4 °F 100% 29.27 in 1.2 mi Calm Calm - 0.01 in   Drizzle
9:50 AM 37.4 °F - 37.4 °F 100% 29.28 in 1.2 mi Calm Calm - 0.01 in   Light Drizzle
10:10 AM 39.2 °F - 37.4 °F 93% 29.27 in 1.5 mi Calm Calm - N/A   Overcast
10:30 AM 39.2 °F - 37.4 °F 93% 29.27 in 1.2 mi Calm Calm - N/A   Overcast
10:50 AM 37.4 °F - 37.4 °F 100% 29.28 in 2.5 mi Calm Calm - N/A   Overcast
11:10 AM 37.4 °F - 37.4 °F 100% 29.29 in 1.8 mi Calm Calm - N/A   Overcast
11:30 AM 37.4 °F 32.8 °F 37.4 °F 100% 29.29 in 2.0 mi NNW 5.8 mph - N/A   Drizzle
11:50 AM 35.6 °F 30.7 °F 35.6 °F 100% 29.29 in 4.0 mi NW 5.8 mph 16.1 mph N/A   Overcast
12:10 PM 35.6 °F 29.2 °F 33.8 °F 93% 29.30 in 4.0 mi NW 8.1 mph - N/A   Overcast
12:30 PM 33.8 °F 27.7 °F 33.8 °F 100% 29.32 in 10.0 mi NW 6.9 mph - N/A   Overcast
12:50 PM 33.8 °F 27.0 °F 33.8 °F 100% 29.32 in 10.0 mi NNW 8.1 mph - N/A   Overcast
1:10 PM 33.8 °F 28.6 °F 33.8 °F 100% 29.33 in 10.0 mi NNW 5.8 mph - N/A   Overcast
1:30 PM 33.8 °F 27.7 °F 33.8 °F 100% 29.34 in 2.5 mi NW 6.9 mph 16.1 mph N/A Rain Light Rain
1:50 PM 33.8 °F 27.7 °F 33.8 °F 100% 29.35 in 5.0 mi NNW 6.9 mph - N/A Rain Light Rain
2:10 PM 33.8 °F 27.7 °F 32.0 °F 93% 29.36 in 4.0 mi NW 6.9 mph - N/A   Overcast
2:30 PM 33.8 °F 26.4 °F 32.0 °F 93% 29.36 in 3.0 mi NW 9.2 mph - N/A Snow Light Snow
2:50 PM 32.0 °F 25.6 °F 32.0 °F 100% 29.38 in 4.0 mi NW 6.9 mph 21.9 mph N/A Snow Light Snow
3:10 PM 30.2 °F 22.6 °F 30.2 °F 100% 29.38 in 4.0 mi NW 8.1 mph - N/A Snow Light Snow
3:30 PM 30.2 °F 21.3 °F 30.2 °F 100% 29.39 in 10.0 mi NW 10.4 mph 17.3 mph N/A   Overcast
3:50 PM 30.2 °F 25.4 °F 30.2 °F 100% 29.41 in 10.0 mi NW 4.6 mph 18.4 mph N/A   Overcast
4:10 PM 30.2 °F 20.8 °F 30.2 °F 100% 29.42 in 10.0 mi NW 11.5 mph - N/A   Overcast
4:30 PM 30.2 °F 21.9 °F 30.2 °F 100% 29.44 in 10.0 mi NW 9.2 mph - N/A   Overcast
4:50 PM 30.2 °F 23.4 °F 28.4 °F 93% 29.45 in 10.0 mi NW 6.9 mph - N/A   Overcast
5:10 PM 30.2 °F 23.4 °F 28.4 °F 93% 29.46 in 10.0 mi NW 6.9 mph - N/A   Overcast
5:30 PM 28.4 °F 18.5 °F 28.4 °F 100% 29.47 in 10.0 mi NNW 11.5 mph 19.6 mph N/A   Overcast
5:50 PM 28.4 °F 18.5 °F 28.4 °F 100% 29.48 in 10.0 mi NW 11.5 mph 18.4 mph N/A   Overcast
6:10 PM 28.4 °F 19.1 °F 28.4 °F 100% 29.49 in 10.0 mi NW 10.4 mph - N/A Snow Light Snow
6:30 PM 28.4 °F 23.3 °F 28.4 °F 100% 29.51 in 10.0 mi NW 4.6 mph - N/A Snow Light Snow
6:50 PM 28.4 °F 21.2 °F 26.6 °F 93% 29.51 in 10.0 mi NW 6.9 mph - N/A Snow Light Snow
7:10 PM 26.6 °F 22.6 °F 26.6 °F 100% 29.52 in 10.0 mi NW 3.5 mph - N/A Snow Light Snow
7:30 PM 26.6 °F 20.0 °F 26.6 °F 100% 29.53 in 7.0 mi West 5.8 mph - N/A Snow Light Snow
7:50 PM 26.6 °F 21.2 °F 26.6 °F 100% 29.54 in 1.8 mi WNW 4.6 mph - N/A Snow Light Snow
8:10 PM 26.6 °F 20.0 °F 26.6 °F 100% 29.54 in 2.5 mi NW 5.8 mph - N/A Snow Light Snow
8:30 PM 26.6 °F 20.0 °F 26.6 °F 100% 29.55 in 7.0 mi WNW 5.8 mph - N/A   Overcast
8:50 PM 26.6 °F 21.2 °F 26.6 °F 100% 29.57 in 4.0 mi NW 4.6 mph - N/A Snow Light Snow
9:10 PM 26.6 °F 19.1 °F 26.6 °F 100% 29.58 in 7.0 mi WNW 6.9 mph - N/A   Overcast
9:30 PM 26.6 °F 20.0 °F 26.6 °F 100% 29.58 in 10.0 mi NW 5.8 mph - N/A Snow Light Snow
9:50 PM 26.6 °F 19.1 °F 26.6 °F 100% 29.59 in 10.0 mi NW 6.9 mph 16.1 mph N/A Snow Light Snow
10:10 PM 26.6 °F 16.2 °F 26.6 °F 100% 29.59 in 10.0 mi NW 11.5 mph 19.6 mph N/A   Overcast
10:30 PM 26.6 °F 16.2 °F 26.6 °F 100% 29.60 in 10.0 mi NW 11.5 mph 18.4 mph N/A   Overcast
10:50 PM 26.6 °F 18.2 °F 26.6 °F 100% 29.62 in 10.0 mi NW 8.1 mph 18.4 mph N/A Snow Light Snow
11:10 PM 26.6 °F 15.2 °F 26.6 °F 100% 29.62 in 10.0 mi NW 13.8 mph 19.6 mph N/A Snow Light Snow
11:30 PM 26.6 °F 16.2 °F 26.6 °F 100% 29.64 in 7.0 mi NW 11.5 mph 18.4 mph N/A Snow Light Snow
11:49 PM 26.6 °F 16.8 °F 24.8 °F 93% 29.65 in 5.0 mi NNW 10.4 mph 20.7 mph N/A Snow Light Snow